EXS78PB LTBS-EGCC

Flight info

Callsign EXS78PB
Flight time 4h 10m
Altitude 36000
Route KEKIK1C/19 KEKIK UN127 UFQUM UN127 RIKSO DCT LMO DCT FSK UL608 DISOR DCT LONTA UL608 DOLEV DCT PODOB DCT TIMID DCT MONID DCT SABAD DCT RIFEN DCT SAFFA DCT ELMUR DCT RIPUS DCT DITON DCT HOC DCT LUL DCT RLP DCT ROTSI DCT KOTUN DCT AMAXA DCT VESAN DCT RATUK DCT SOVAT L613 SANDY UN57 WELIN T420 ELVOS
Aircraft B738/M-SDFGHIJ1RWXYZ/LB1

Departure

Time 2026-04-30 14:52
Airport Dalaman International Airport (LTBS)

Arrival

Time 2026-04-30 19:02
Airport Manchester Airport (EGCC)
Time Latitude Longitude Altitude Speed Heading
2026-04-30 14:49 36.72609 28.79479 11 ft 11 kts 16°
2026-04-30 14:49 36.72644 28.79550 11 ft 10 kts 95°
2026-04-30 14:49 36.72615 28.79630 11 ft 10 kts 126°
2026-04-30 14:50 36.72555 28.79673 11 ft 2 kts 190°
2026-04-30 14:50 36.72550 28.79671 11 ft 0 kts 195°
2026-04-30 14:51 36.72541 28.79668 11 ft 7 kts 195°
2026-04-30 14:51 36.72265 28.79574 11 ft 76 kts 195°
2026-04-30 14:51 36.70500 28.78949 239 ft 166 kts 197°
2026-04-30 14:52 36.69376 28.78565 963 ft 168 kts 195°
2026-04-30 14:52 36.66997 28.77776 2106 ft 194 kts 196°
2026-04-30 14:52 36.65618 28.77306 2424 ft 216 kts 196°
2026-04-30 14:53 36.62968 28.75555 3511 ft 225 kts 240°
2026-04-30 14:53 36.62568 28.73681 4064 ft 230 kts 273°
2026-04-30 14:54 36.63312 28.69740 5008 ft 252 kts 286°
2026-04-30 14:54 36.64340 28.65262 6108 ft 275 kts 285°
2026-04-30 14:55 36.65437 28.60666 7592 ft 281 kts 297°
2026-04-30 14:55 36.66690 28.58815 8317 ft 282 kts 321°
2026-04-30 14:55 36.69807 28.55752 9786 ft 289 kts 322°
2026-04-30 14:56 36.73089 28.52507 10542 ft 321 kts 321°
2026-04-30 14:56 36.76767 28.48838 11215 ft 350 kts 321°
2026-04-30 14:57 36.78844 28.47253 11926 ft 353 kts 338°
2026-04-30 14:57 36.83584 28.45546 13312 ft 360 kts 343°
2026-04-30 14:58 36.88421 28.43852 14548 ft 366 kts 342°
2026-04-30 14:58 36.90876 28.42972 15193 ft 368 kts 341°
2026-04-30 14:58 36.95829 28.41172 16434 ft 374 kts 341°
2026-04-30 14:59 37.00869 28.39332 17585 ft 381 kts 341°
2026-04-30 15:00 37.08472 28.36201 19197 ft 385 kts 324°
2026-04-30 15:00 37.12513 28.31816 20277 ft 386 kts 316°
2026-04-30 15:01 37.16567 28.27336 21232 ft 392 kts 317°
2026-04-30 15:01 37.18642 28.25105 21712 ft 394 kts 317°
2026-04-30 15:01 37.22852 28.20608 22629 ft 400 kts 317°
2026-04-30 15:02 37.24972 28.18335 23150 ft 401 kts 317°
2026-04-30 15:02 37.27099 28.16050 23613 ft 403 kts 317°
2026-04-30 15:03 37.33531 28.09093 24721 ft 410 kts 317°
2026-04-30 15:03 37.37846 28.04371 25441 ft 414 kts 316°
2026-04-30 15:04 37.42211 27.99585 26122 ft 418 kts 316°
2026-04-30 15:04 37.48805 27.92350 27103 ft 424 kts 316°
2026-04-30 15:05 37.55520 27.84965 28031 ft 430 kts 316°
2026-04-30 15:06 37.60050 27.79973 28630 ft 434 kts 316°
2026-04-30 15:06 37.64611 27.74938 29198 ft 438 kts 316°
2026-04-30 15:07 37.69204 27.69860 29902 ft 438 kts 316°
2026-04-30 15:07 37.73759 27.64816 30743 ft 432 kts 316°
2026-04-30 15:08 37.78255 27.59828 31506 ft 428 kts 315°
2026-04-30 15:08 37.84921 27.52414 32576 ft 422 kts 315°
2026-04-30 15:09 37.89276 27.47564 33240 ft 419 kts 315°
2026-04-30 15:09 37.93655 27.42751 33921 ft 414 kts 315°
2026-04-30 15:10 37.97996 27.37998 34443 ft 412 kts 315°
2026-04-30 15:11 38.06671 27.28447 35147 ft 415 kts 315°
2026-04-30 15:11 38.11026 27.23640 35566 ft 414 kts 315°
2026-04-30 15:12 38.17530 27.16443 35961 ft 416 kts 315°
2026-04-30 15:13 38.21884 27.11615 35954 ft 414 kts 315°
2026-04-30 15:14 38.36872 26.94990 35971 ft 407 kts 315°
2026-04-30 15:17 38.56201 26.73591 35967 ft 413 kts 315°
2026-04-30 15:19 38.73621 26.54158 35979 ft 417 kts 315°
2026-04-30 17:39 47.39475 7.96002 36223 ft 439 kts 292°
2026-04-30 17:42 47.49059 7.53042 36210 ft 444 kts 285°
2026-04-30 17:43 47.52637 7.30786 36210 ft 443 kts 286°
2026-04-30 17:44 47.56981 7.04208 36184 ft 444 kts 285°
2026-04-30 17:47 47.63402 6.64096 36176 ft 446 kts 285°
2026-04-30 17:48 47.68316 6.32735 36190 ft 448 kts 284°
2026-04-30 17:50 47.75655 5.97279 36179 ft 457 kts 288°
2026-04-30 17:52 47.81383 5.69838 36156 ft 466 kts 288°
2026-04-30 17:54 47.89941 5.28528 36150 ft 461 kts 294°
2026-04-30 17:55 47.97480 5.13396 36164 ft 456 kts 314°
2026-04-30 17:56 48.06071 4.99433 36166 ft 457 kts 313°
2026-04-30 17:58 48.18932 4.78066 36175 ft 463 kts 313°
2026-04-30 18:00 48.36162 4.49135 36160 ft 467 kts 313°
2026-04-30 18:01 48.46952 4.30815 36162 ft 468 kts 313°
2026-04-30 18:02 48.59855 4.08743 36185 ft 466 kts 312°
2026-04-30 18:04 48.72718 3.86801 36170 ft 465 kts 318°
2026-04-30 18:06 48.93636 3.63897 36187 ft 464 kts 326°
2026-04-30 18:08 49.11955 3.43661 36183 ft 465 kts 325°
2026-04-30 18:10 49.31192 3.22214 36183 ft 466 kts 325°
2026-04-30 18:11 49.49502 3.01603 36180 ft 466 kts 324°
2026-04-30 18:13 49.62521 2.86828 36179 ft 466 kts 324°
2026-04-30 18:14 49.75544 2.71948 36186 ft 466 kts 324°
2026-04-30 18:15 49.91324 2.54346 36185 ft 466 kts 325°
2026-04-30 18:16 50.01858 2.42585 36184 ft 466 kts 325°
2026-04-30 18:17 50.07117 2.36682 36178 ft 466 kts 324°
2026-04-30 18:18 50.15011 2.27792 36184 ft 467 kts 324°
2026-04-30 18:18 50.20270 2.21848 36168 ft 467 kts 324°
2026-04-30 18:19 50.25496 2.15926 36171 ft 467 kts 324°
2026-04-30 18:19 50.30753 2.09951 36169 ft 467 kts 324°
2026-04-30 18:20 50.36016 2.03955 36171 ft 468 kts 324°
2026-04-30 18:20 50.41085 1.97562 36160 ft 468 kts 319°
2026-04-30 18:21 50.45957 1.90794 36165 ft 468 kts 319°
2026-04-30 18:21 50.50839 1.84025 36166 ft 468 kts 319°
2026-04-30 18:22 50.55752 1.77283 36159 ft 468 kts 319°
2026-04-30 18:22 50.63126 1.67154 36160 ft 469 kts 319°
2026-04-30 18:23 50.68037 1.60378 36164 ft 469 kts 319°
2026-04-30 18:23 50.72947 1.53580 36167 ft 470 kts 319°
2026-04-30 18:24 50.80276 1.43403 36169 ft 470 kts 319°
2026-04-30 18:25 50.85187 1.36567 36175 ft 470 kts 319°
2026-04-30 18:25 50.92547 1.26284 36181 ft 471 kts 318°
2026-04-30 18:26 50.99907 1.15954 36184 ft 471 kts 318°
2026-04-30 18:27 51.07266 1.05568 36186 ft 472 kts 317°
2026-04-30 18:28 51.13545 0.95908 36187 ft 472 kts 315°
2026-04-30 18:28 51.21319 0.83657 36181 ft 473 kts 315°
2026-04-30 18:29 51.29948 0.70155 36173 ft 472 kts 315°
2026-04-30 18:30 51.39324 0.55413 36202 ft 472 kts 314°
2026-04-30 18:31 51.46301 0.44381 36217 ft 472 kts 314°
2026-04-30 18:32 51.53300 0.33262 36194 ft 472 kts 314°
2026-04-30 18:33 51.60272 0.22137 36206 ft 471 kts 314°
2026-04-30 18:33 51.67240 0.10926 36207 ft 471 kts 313°
2026-04-30 18:34 51.74119 -0.00403 36253 ft 471 kts 313°
2026-04-30 18:35 51.78706 -0.07988 36256 ft 472 kts 313°
2026-04-30 18:35 51.83283 -0.15566 36204 ft 471 kts 313°
2026-04-30 18:36 51.90148 -0.26969 36212 ft 471 kts 313°
2026-04-30 18:36 51.94749 -0.34643 35292 ft 477 kts 312°
2026-04-30 18:37 51.97060 -0.38508 34682 ft 477 kts 312°
2026-04-30 18:37 51.99335 -0.42316 34049 ft 478 kts 312°
2026-04-30 18:37 52.01684 -0.46257 33310 ft 479 kts 312°
2026-04-30 18:37 52.03969 -0.50095 32639 ft 480 kts 312°
2026-04-30 18:38 52.06278 -0.53980 32203 ft 474 kts 312°
2026-04-30 18:38 52.08555 -0.57815 31719 ft 471 kts 312°
2026-04-30 18:38 52.10825 -0.61646 31256 ft 467 kts 312°
2026-04-30 18:38 52.13073 -0.65445 30802 ft 464 kts 312°
2026-04-30 18:39 52.15304 -0.69223 30352 ft 461 kts 312°
2026-04-30 18:39 52.17518 -0.72979 29836 ft 458 kts 312°
2026-04-30 18:39 52.19714 -0.76707 29350 ft 453 kts 312°
2026-04-30 18:39 52.21886 -0.80400 28880 ft 449 kts 312°
2026-04-30 18:40 52.24061 -0.84025 28406 ft 446 kts 316°
2026-04-30 18:40 52.26481 -0.87174 27934 ft 444 kts 326°
2026-04-30 18:40 52.29104 -0.89797 27485 ft 440 kts 328°
2026-04-30 18:40 52.31737 -0.92327 27020 ft 437 kts 329°
2026-04-30 18:41 52.34354 -0.94845 26580 ft 435 kts 329°
2026-04-30 18:41 52.36941 -0.97369 26139 ft 432 kts 328°
2026-04-30 18:41 52.39476 -0.99873 25714 ft 430 kts 328°
2026-04-30 18:41 52.42024 -1.02412 25251 ft 428 kts 328°
2026-04-30 18:42 52.44563 -1.04952 24771 ft 426 kts 328°
2026-04-30 18:42 52.49612 -1.10013 23843 ft 424 kts 327°
2026-04-30 18:42 52.52116 -1.12548 23312 ft 423 kts 327°
2026-04-30 18:45 52.76290 -1.37097 18953 ft 399 kts 327°
2026-04-30 18:45 52.78678 -1.39530 18482 ft 397 kts 327°
2026-04-30 18:45 52.80996 -1.41896 17960 ft 396 kts 327°
2026-04-30 18:46 52.83332 -1.44285 17468 ft 394 kts 327°
2026-04-30 18:46 52.85658 -1.46665 16995 ft 392 kts 327°
2026-04-30 18:46 52.87971 -1.49037 16535 ft 390 kts 327°
2026-04-30 18:46 52.90267 -1.51393 16087 ft 388 kts 328°
2026-04-30 18:47 52.92557 -1.53747 15640 ft 386 kts 327°
2026-04-30 18:47 52.94835 -1.56091 15184 ft 385 kts 327°
2026-04-30 18:47 52.97107 -1.58432 14744 ft 384 kts 327°
2026-04-30 18:47 52.99372 -1.60768 14295 ft 383 kts 327°
2026-04-30 18:48 53.01635 -1.63104 13816 ft 382 kts 327°
2026-04-30 18:48 53.03879 -1.65423 13311 ft 375 kts 327°
2026-04-30 18:48 53.05969 -1.67887 12838 ft 363 kts 313°
2026-04-30 18:48 53.07583 -1.70998 12468 ft 349 kts 306°
2026-04-30 18:49 53.09107 -1.74087 12041 ft 341 kts 307°
2026-04-30 18:49 53.10620 -1.77082 11537 ft 337 kts 308°
2026-04-30 18:49 53.12125 -1.80026 11110 ft 331 kts 308°
2026-04-30 18:49 53.13606 -1.82903 10704 ft 324 kts 308°
2026-04-30 18:50 53.15061 -1.85730 10317 ft 318 kts 308°
2026-04-30 18:50 53.16486 -1.88502 9925 ft 311 kts 308°
2026-04-30 18:50 53.17864 -1.91186 9657 ft 304 kts 307°
2026-04-30 18:50 53.19256 -1.93905 9229 ft 309 kts 308°
2026-04-30 18:51 53.20651 -1.96631 8904 ft 308 kts 308°
2026-04-30 18:51 53.22031 -1.99328 8688 ft 303 kts 308°
2026-04-30 18:51 53.23279 -2.02059 8452 ft 296 kts 294°
2026-04-30 18:51 53.23812 -2.05271 8226 ft 282 kts 266°
2026-04-30 18:52 53.23556 -2.08417 8037 ft 270 kts 252°
2026-04-30 18:52 53.23104 -2.11431 7820 ft 265 kts 250°
2026-04-30 18:52 53.22479 -2.14269 7610 ft 258 kts 242°
2026-04-30 18:52 53.21737 -2.16966 7405 ft 254 kts 240°
2026-04-30 18:53 53.20996 -2.19622 7192 ft 251 kts 240°
2026-04-30 18:53 53.20256 -2.22271 6921 ft 252 kts 240°
2026-04-30 18:53 53.19518 -2.24923 6659 ft 252 kts 240°
2026-04-30 18:53 53.18786 -2.27556 6438 ft 249 kts 240°
2026-04-30 18:54 53.18055 -2.30166 6193 ft 247 kts 240°
2026-04-30 18:54 53.17335 -2.32725 5953 ft 241 kts 240°
2026-04-30 18:54 53.16628 -2.35234 5637 ft 237 kts 240°
2026-04-30 18:54 53.15935 -2.37697 5344 ft 232 kts 240°
2026-04-30 18:55 53.15261 -2.40101 5085 ft 226 kts 239°
2026-04-30 18:55 53.14008 -2.44769 4572 ft 216 kts 246°
2026-04-30 18:55 53.13940 -2.47273 4320 ft 223 kts 281°
2026-04-30 18:56 53.16037 -2.50936 3913 ft 224 kts 325°
2026-04-30 18:56 53.17323 -2.52336 3715 ft 224 kts 325°
2026-04-30 18:56 53.18690 -2.53506 3504 ft 220 kts 349°
2026-04-30 18:57 53.21561 -2.52857 3159 ft 205 kts 19°
2026-04-30 18:57 53.22887 -2.52069 3019 ft 198 kts 43°
2026-04-30 18:57 53.23742 -2.50443 2995 ft 183 kts 61°
2026-04-30 18:58 53.25383 -2.47159 2630 ft 181 kts 59°
2026-04-30 18:58 53.26169 -2.45551 2407 ft 177 kts 58°
2026-04-30 18:58 53.26934 -2.43972 2167 ft 174 kts 59°
2026-04-30 18:59 53.28404 -2.40939 1731 ft 158 kts 60°
2026-04-30 19:00 53.30325 -2.36970 1126 ft 148 kts 58°
2026-04-30 19:00 53.30966 -2.35621 921 ft 147 kts 57°
2026-04-30 19:00 53.32253 -2.32972 557 ft 148 kts 54°
2026-04-30 19:01 53.33520 -2.30399 233 ft 137 kts 52°
2026-04-30 19:01 53.34010 -2.29386 229 ft 79 kts 51°
2026-04-30 19:02 53.34387 -2.28647 223 ft 22 kts 37°
2026-04-30 19:02 53.34653 -2.28441 229 ft 18 kts 21°
2026-04-30 19:03 53.34824 -2.28170 230 ft 17 kts 51°
2026-04-30 19:03 53.34964 -2.27880 230 ft 15 kts 51°
2026-04-30 19:04 53.35101 -2.27596 233 ft 15 kts 51°
2026-04-30 19:04 53.35235 -2.27317 237 ft 15 kts 51°
2026-04-30 19:05 53.35365 -2.27202 244 ft 10 kts 346°
2026-04-30 19:05 53.35494 -2.27351 247 ft 14 kts 321°
2026-04-30 19:06 53.35667 -2.27585 245 ft 15 kts 322°
2026-04-30 19:06 53.35758 -2.27650 249 ft 14 kts 354°
2026-04-30 19:06 53.35945 -2.27629 254 ft 13 kts 358°
2026-04-30 19:07 53.36081 -2.27693 254 ft 10 kts 284°
2026-04-30 19:07 53.36099 -2.27817 254 ft 12 kts 284°
2026-04-30 19:08 53.36216 -2.28068 254 ft 14 kts 314°
2026-04-30 19:08 53.36348 -2.28291 254 ft 13 kts 314°
2026-04-30 19:08 53.36402 -2.28407 254 ft 13 kts 291°
2026-04-30 19:09 53.36510 -2.28639 254 ft 14 kts 315°
2026-04-30 19:09 53.36574 -2.28761 254 ft 14 kts 303°
2026-04-30 19:09 53.36624 -2.28874 254 ft 11 kts 325°
2026-04-30 19:10 53.36742 -2.29030 254 ft 11 kts 329°
2026-04-30 19:10 53.36833 -2.28984 254 ft 3 kts 86°
2026-04-30 19:11 53.36821 -2.28952 254 ft 4 kts 134°
2026-04-30 19:11 53.36804 -2.28923 254 ft 0 kts 134°